Regional Weather Roundup
Issued by NWS

Home | Current Version | Previous Version | Graphics & Text | Print | Product List | Glossary On
Versions: 1 2 3 4 5 6 7 8 9 10 11 12 13 14 15 16 17 18 19 20 21 22 23 24 25 26 27 28 29 30 31 32 33 34 35 36 37 38 39 40 41 42 43 44 45 46 47 48 49 50
000
ASUS43 KFSD 251210
RWRSD

WEATHER ROUNDUP FOR SOUTH DAKOTA
NATIONAL WEATHER SERVICE SIOUX FALLS SD
700 AM CDT MON SEP 25 2017

NOTE: "FAIR" INDICATES FEW OR NO CLOUDS BELOW 12,000 FEET WITH NO
SIGNIFICANT WEATHER AND/OR OBSTRUCTIONS TO VISIBILITY.


SDZ001>005-009-010-012>017-251300-
NORTHWEST AND NORTH CENTRAL SOUTH DAKOTA

CITY           SKY/WX    TMP DP  RH WIND       PRES   REMARKS
BUFFALO          N/A     42  41  96 CALM      30.08S
FAITH            N/A     45  44  97 NE6       30.14S
MOBRIDGE       CLOUDY    50  45  83 N6        30.12R
$$

SDZ012>016-024>037-041>051-057-063-072>074-251300-
SOUTHWEST AND SOUTH CENTRAL SOUTH DAKOTA

CITY           SKY/WX    TMP DP  RH WIND       PRES   REMARKS
RAPID CTY ARPT CLOUDY    45  43  93 N3        30.13
PIERRE         CLOUDY    48  43  82 N6        30.13R
CUSTER         FOG       36  34  92 CALM      30.11F VSB 1/2
ELLSWORTH AFB  CLOUDY    45  45 100 N3        30.12
PHILIP         CLOUDY    47  45  93 N7        30.14S
PINE RIDGE     CLOUDY    44  43  96 NE6       30.12R
SPEARFISH      CLOUDY    41  41 100 E5        30.13S
WINNER         LGT RAIN  50  48  93 N13       30.11S FOG
$$

SDZ004>011-016>023-039-040-251300-
NORTHEAST SOUTH DAKOTA

CITY           SKY/WX    TMP DP  RH WIND       PRES   REMARKS
ABERDEEN       CLOUDY    49  47  93 N10       30.11R
WATERTOWN      CLOUDY    48  48 100 N12       30.06S
BROOKINGS      LGT RAIN  49  48  97 N13       30.04F
SISSETON         N/A     51  48  89 N10       30.09R
$$

SDZ017-020-022-023-036>040-048>070-251300-
SOUTHEAST SOUTH DAKOTA

CITY           SKY/WX    TMP DP  RH WIND       PRES   REMARKS
SIOUX FALLS    LGT RAIN  53  52  96 NE13      30.01F
HURON          CLOUDY    50  47  89 N13       30.08R
CHAMBERLAIN    LGT RAIN  50  48  92 N12       30.10R
MITCHELL       HVY RAIN  50  49  96 N10       30.05S FOG
YANKTON        LGT RAIN  52  51  97 NW9       30.03R
$$

ABBREVIATIONS USED IN REMARKS
   TC - TEMPERATURE IN CELSIUS
  WCI - WIND CHILL INDEX
   HX - HEAT INDEX
  VSB - VISIBILITY




USA.gov is the U.S. government's official web portal to all federal, state and local government web resources and services.